When you browse on this site, cookies collect data to enhance your experience and personalize the content and advertising you see.
Visit our Privacy Policy to learn more. By continuing to use the site, you agree to this use of cookies and data.
  • In Hungary
  • List of Countries
  • For 7 days
  • Water Temperature
  • Weather Map
  • News
  • Weather Widgets
  • user-avatar
    Login

    Hourly Weather Gredele

    Today, 22 September, Sunday

    Time Temperature Precipitation Wind Pressure Humidity
    00:00 +12°C° 0 mm 4 mps 750 mmHg 85%
    01:00 +11°C° 0 mm 4 mps 750 mmHg 89%
    02:00 +10°C° 0 mm 3 mps 750 mmHg 92%
    03:00 +10°C° 0 mm 3 mps 750 mmHg 94%
    04:00 +9°C° 0 mm 3 mps 750 mmHg 95%
    05:00 +8°C° 0 mm 3 mps 750 mmHg 97%
    06:00 +9°C° 0 mm 3 mps 750 mmHg 94%
    07:00 +10°C° 0 mm 3 mps 750 mmHg 92%
    08:00 +10°C° 0 mm 3 mps 750 mmHg 89%
    09:00 +12°C° 0 mm 3 mps 750 mmHg 81%
    10:00 +14°C° 0 mm 3 mps 750 mmHg 73%
    11:00 +17°C° 0 mm 3 mps 750 mmHg 65%
    12:00 +18°C° 0 mm 3 mps 749 mmHg 62%
    13:00 +19°C° 0 mm 4 mps 749 mmHg 58%
    14:00 +20°C° 0 mm 4 mps 748 mmHg 55%
    15:00 +19°C° 0 mm 3 mps 748 mmHg 57%
    16:00 +19°C° 0 mm 3 mps 747 mmHg 59%
    17:00 +19°C° 0 mm 3 mps 747 mmHg 61%
    18:00 +17°C° 0 mm 3 mps 747 mmHg 67%
    19:00 +15°C° 0 mm 2 mps 747 mmHg 72%
    20:00 +14°C° 0 mm 2 mps 748 mmHg 78%
    21:00 +13°C° 0 mm 2 mps 748 mmHg 82%
    22:00 +13°C° 0 mm 2 mps 748 mmHg 86%
    23:00 +12°C° 0 mm 2 mps 748 mmHg 91%

    Tomorrow, 23 September, Monday

    Time Temperature Precipitation Wind Pressure Humidity
    00:00 +11°C° 0 mm 3 mps 749 mmHg 90%
    01:00 +10°C° 0 mm 3 mps 749 mmHg 89%
    02:00 +10°C° 0 mm 4 mps 750 mmHg 89%
    03:00 +8°C° 0 mm 4 mps 750 mmHg 85%
    04:00 +8°C° 0 mm 4 mps 750 mmHg 81%
    05:00 +7°C° 0 mm 4 mps 750 mmHg 77%
    06:00 +7°C° 0 mm 4 mps 750 mmHg 75%
    07:00 +7°C° 0 mm 5 mps 751 mmHg 74%
    08:00 +7°C° 0 mm 5 mps 751 mmHg 73%
    09:00 +8°C° 0 mm 5 mps 751 mmHg 69%
    10:00 +9°C° 0 mm 5 mps 752 mmHg 64%
    11:00 +10°C° 0 mm 5 mps 752 mmHg 60%
    12:00 +12°C° 0 mm 5 mps 752 mmHg 56%
    13:00 +12°C° 0 mm 5 mps 751 mmHg 53%
    14:00 +13°C° 0 mm 5 mps 751 mmHg 49%
    15:00 +13°C° 0 mm 4 mps 751 mmHg 50%
    16:00 +12°C° 0 mm 4 mps 751 mmHg 51%
    17:00 +12°C° 0 mm 4 mps 751 mmHg 52%
    18:00 +10°C° 0 mm 4 mps 751 mmHg 56%
    19:00 +9°C° 0 mm 3 mps 751 mmHg 60%
    20:00 +7°C° 0 mm 3 mps 751 mmHg 64%
    21:00 +7°C° 0 mm 3 mps 751 mmHg 64%
    22:00 +5°C° 0 mm 3 mps 752 mmHg 64%
    23:00 +5°C° 0 mm 3 mps 752 mmHg 65%

    Day after tomorrow, 24 September, Tuesday

    Time Temperature Precipitation Wind Pressure Humidity
    00:00 +4°C° 0 mm 3 mps 752 mmHg 65%
    01:00 +4°C° 0 mm 3 mps 752 mmHg 66%
    02:00 +3°C° 0 mm 3 mps 752 mmHg 67%
    03:00 +3°C° 0 mm 3 mps 751 mmHg 67%
    04:00 +3°C° 0 mm 3 mps 751 mmHg 68%
    05:00 +2°C° 0 mm 3 mps 751 mmHg 69%
    06:00 +3°C° 0 mm 3 mps 751 mmHg 66%
    07:00 +4°C° 0 mm 3 mps 751 mmHg 63%
    08:00 +5°C° 0 mm 3 mps 751 mmHg 59%
    09:00 +8°C° 0 mm 3 mps 751 mmHg 55%
    10:00 +10°C° 0 mm 3 mps 750 mmHg 52%
    11:00 +12°C° 0 mm 3 mps 750 mmHg 48%
    12:00 +13°C° 0 mm 3 mps 750 mmHg 47%
    13:00 +14°C° 0 mm 3 mps 750 mmHg 46%
    14:00 +16°C° 0 mm 3 mps 749 mmHg 46%
    15:00 +16°C° 0 mm 2 mps 749 mmHg 48%
    16:00 +15°C° 0 mm 2 mps 749 mmHg 51%
    17:00 +15°C° 0 mm 2 mps 748 mmHg 54%
    18:00 +13°C° 0 mm 2 mps 748 mmHg 59%
    19:00 +11°C° 0 mm 3 mps 748 mmHg 63%
    20:00 +9°C° 0 mm 3 mps 748 mmHg 68%
    21:00 +8°C° 0 mm 3 mps 748 mmHg 68%
    22:00 +8°C° 0 mm 3 mps 748 mmHg 68%
    23:00 +7°C° 0 mm 3 mps 748 mmHg 68%

    25 September, Wednesday

    Time Temperature Precipitation Wind Pressure Humidity
    00:00 +7°C° 0 mm 3 mps 748 mmHg 69%
    01:00 +7°C° 0 mm 3 mps 748 mmHg 70%
    02:00 +5°C° 0 mm 3 mps 747 mmHg 70%
    03:00 +5°C° 0 mm 3 mps 747 mmHg 70%
    04:00 +5°C° 0 mm 3 mps 747 mmHg 70%
    05:00 +5°C° 0 mm 3 mps 747 mmHg 70%
    06:00 +7°C° 0 mm 3 mps 746 mmHg 67%
    07:00 +8°C° 0 mm 3 mps 746 mmHg 65%
    08:00 +7°C° 0 mm 4 mps 746 mmHg 62%
    09:00 +10°C° 0 mm 4 mps 746 mmHg 60%
    10:00 +11°C° 0 mm 4 mps 746 mmHg 58%
    11:00 +13°C° 0 mm 4 mps 746 mmHg 56%
    12:00 +14°C° 0 mm 4 mps 745 mmHg 56%
    13:00 +15°C° 0 mm 4 mps 745 mmHg 56%
    14:00 +17°C° 0 mm 4 mps 745 mmHg 56%
    15:00 +17°C° 0 mm 4 mps 744 mmHg 59%
    16:00 +17°C° 0 mm 3 mps 744 mmHg 62%
    17:00 +17°C° 0 mm 3 mps 744 mmHg 65%
    18:00 +16°C° 0 mm 3 mps 744 mmHg 68%
    19:00 +14°C° 0 mm 3 mps 744 mmHg 72%
    20:00 +13°C° 0 mm 3 mps 744 mmHg 75%
    21:00 +13°C° 0.1 mm 3 mps 744 mmHg 78%
    22:00 +14°C° 0.1 mm 2 mps 744 mmHg 81%
    23:00 +14°C° 0.1 mm 2 mps 744 mmHg 84%

    26 September, Thursday

    Time Temperature Precipitation Wind Pressure Humidity
    00:00 +13°C° 0.5 mm 2 mps 743 mmHg 87%
    01:00 +13°C° 0.5 mm 2 mps 743 mmHg 90%
    02:00 +13°C° 0.5 mm 2 mps 743 mmHg 93%
    03:00 +13°C° 0.4 mm 2 mps 743 mmHg 94%
    04:00 +12°C° 0.4 mm 2 mps 743 mmHg 95%
    05:00 +12°C° 0.4 mm 2 mps 743 mmHg 96%
    06:00 +12°C° 0.1 mm 2 mps 743 mmHg 95%
    07:00 +13°C° 0.1 mm 2 mps 743 mmHg 94%
    08:00 +13°C° 0.1 mm 2 mps 744 mmHg 93%
    09:00 +14°C° 0.1 mm 1 mps 744 mmHg 89%
    10:00 +15°C° 0.1 mm 1 mps 744 mmHg 84%
    11:00 +16°C° 0.1 mm 1 mps 745 mmHg 80%
    12:00 +18°C° 0 mm 1 mps 745 mmHg 79%
    13:00 +17°C° 0 mm 2 mps 745 mmHg 77%
    14:00 +18°C° 0 mm 2 mps 745 mmHg 76%
    15:00 +17°C° 0 mm 2 mps 745 mmHg 76%
    16:00 +17°C° 0 mm 2 mps 745 mmHg 77%
    17:00 +17°C° 0 mm 2 mps 745 mmHg 77%
    18:00 +16°C° 0 mm 2 mps 746 mmHg 82%
    19:00 +14°C° 0 mm 2 mps 746 mmHg 86%
    20:00 +13°C° 0 mm 2 mps 746 mmHg 90%
    21:00 +13°C° 0 mm 2 mps 747 mmHg 92%
    22:00 +12°C° 0 mm 1 mps 747 mmHg 93%
    23:00 +11°C° 0 mm 1 mps 747 mmHg 95%

    27 September, Friday

    Time Temperature Precipitation Wind Pressure Humidity
    00:00 +11°C° 0 mm 1 mps 747 mmHg 95%
    01:00 +10°C° 0 mm 1 mps 748 mmHg 95%
    02:00 +10°C° 0 mm 1 mps 748 mmHg 95%
    03:00 +10°C° 0 mm 1 mps 748 mmHg 96%
    04:00 +10°C° 0 mm 1 mps 748 mmHg 96%
    05:00 +9°C° 0 mm 1 mps 748 mmHg 96%
    06:00 +10°C° 0 mm 1 mps 748 mmHg 94%
    07:00 +11°C° 0 mm 1 mps 748 mmHg 93%
    08:00 +11°C° 0 mm 1 mps 748 mmHg 91%
    09:00 +13°C° 0 mm 1 mps 749 mmHg 85%
    10:00 +15°C° 0 mm 1 mps 749 mmHg 79%
    11:00 +18°C° 0 mm 1 mps 749 mmHg 72%
    12:00 +18°C° 0.2 mm 1 mps 749 mmHg 70%
    13:00 +19°C° 0.2 mm 1 mps 749 mmHg 69%
    14:00 +18°C° 0.2 mm 2 mps 749 mmHg 67%
    15:00 +19°C° 0.2 mm 1 mps 748 mmHg 69%
    16:00 +19°C° 0.2 mm 1 mps 748 mmHg 71%
    17:00 +19°C° 0.2 mm 1 mps 748 mmHg 73%
    18:00 +18°C° 0 mm 1 mps 748 mmHg 77%
    19:00 +15°C° 0 mm 2 mps 748 mmHg 82%
    20:00 +14°C° 0 mm 2 mps 748 mmHg 86%
    21:00 +14°C° 0 mm 2 mps 748 mmHg 87%
    22:00 +14°C° 0 mm 2 mps 749 mmHg 88%
    23:00 +13°C° 0 mm 3 mps 749 mmHg 88%
    Show more